KJ6TAG Weather Reports


Display with metric or nautical units.
time (UTC)temp
F
wind
direction
speed
MPH
gust
MPH
rain 1hr
in
rain 24hr
in
rain mn
in
humidity
%
barometer
mb
20260506174538 69 133 1.0 6.0 0.00 0.00 0.00 36 1018.2
20260506173054 69 263 2.0 8.0 0.00 0.00 0.00 37 1018.3
20260506171553 68 104 2.0 7.0 0.00 0.00 0.00 40 1018.2
20260506170050 67 0 1.0 6.0 0.00 0.00 0.00 39 1018.3
20260506164542 66 40 2.0 8.0 0.00 0.00 0.00 42 1018.1
20260506163043 64 245 3.0 9.0 0.00 0.00 0.00 44 1018.1
20260506161542 63 269 4.0 9.0 0.00 0.00 0.00 45 1018.0
20260506160052 62 199 4.0 8.0 0.00 0.00 0.00 47 1018.1
20260506154548 60 203 3.0 9.0 0.00 0.00 0.00 51 1018.1
20260506153042 59 190 6.0 12.0 0.00 0.00 0.00 54 1018.2
20260506151547 57 198 6.0 11.0 0.00 0.00 0.00 58 1018.2
20260506150051 56 179 5.0 12.0 0.00 0.00 0.00 61 1018.1
20260506144544 55 171 6.0 12.0 0.00 0.00 0.00 62 1018.1
20260506143045 54 168 1.0 4.0 0.00 0.00 0.00 65 1018.1
20260506141541 53 229 1.0 6.0 0.00 0.00 0.00 66 1018.1
20260506140042 52 211 3.0 9.0 0.00 0.00 0.00 67 1017.8
20260506134541 52 190 5.0 12.0 0.00 0.00 0.00 68 1017.6
20260506133041 50 197 3.0 10.0 0.00 0.00 0.00 70 1017.5
20260506131555 50 200 3.0 7.0 0.00 0.00 0.00 70 1017.2
20260506130046 50 202 3.0 5.0 0.00 0.00 0.00 70 1017.3
20260506124544 50 197 2.0 5.0 0.00 0.00 0.00 69 1017.4
20260506123044 51 219 3.0 5.0 0.00 0.00 0.00 69 1017.4
20260506121542 51 232 3.0 7.0 0.00 0.00 0.00 69 1017.0
20260506120041 51 195 3.0 8.0 0.00 0.00 0.00 68 1017.1
20260506114542 51 205 5.0 9.0 0.00 0.00 0.00 68 1016.7
20260506113042 51 217 6.0 10.0 0.00 0.00 0.00 68 1016.8
20260506111540 51 175 5.0 9.0 0.00 0.00 0.00 68 1016.7
20260506110040 51 202 6.0 12.0 0.00 0.00 0.00 68 1016.7
20260506104547 51 190 4.0 10.0 0.00 0.00 0.00 68 1016.6
20260506103042 52 179 4.0 11.0 0.00 0.00 0.00 68 1016.7
20260506101544 52 205 7.0 12.0 0.00 0.00 0.00 67 1016.6
20260506100042 52 202 6.0 10.0 0.00 0.00 0.00 67 1016.6
20260506094551 52 207 6.0 11.0 0.00 0.00 0.00 67 1016.7
20260506093041 52 203 7.0 14.0 0.00 0.00 0.00 66 1016.7
20260506091541 51 226 6.0 16.0 0.00 0.00 0.00 66 1016.6
20260506090039 52 225 4.0 10.0 0.00 0.00 0.00 66 1016.7
20260506084545 52 201 5.0 10.0 0.00 0.00 0.00 66 1016.9
20260506083044 52 194 5.0 11.0 0.00 0.00 0.00 66 1016.6
20260506081543 52 203 5.0 13.0 0.00 0.00 0.00 66 1017.0
20260506073050 52 207 6.0 11.0 0.00 0.00 0.00 67 1016.8
20260506071547 52 198 7.0 13.0 0.00 0.00 0.00 67 1016.7
20260506061541 52 208 9.0 15.0 0.00 0.00 0.00 66 1016.1
20260506044544 53 220 7.0 13.0 0.00 0.00 0.00 66 1015.9
20260506043040 53 188 7.0 12.0 0.00 0.00 0.00 65 1015.6
20260506041547 54 206 7.0 13.0 0.00 0.00 0.00 65 1015.4
20260506040046 54 213 7.0 12.0 0.00 0.00 0.00 65 1015.4
20260506034543 54 212 7.0 15.0 0.00 0.00 0.00 64 1015.1
20260506033041 54 211 7.0 12.0 0.00 0.00 0.00 64 1015.0
20260506031541 54 195 6.0 11.0 0.00 0.00 0.00 63 1014.9
20260506030047 55 217 8.0 14.0 0.00 0.00 0.00 62 1014.5
20260506024550 55 234 8.0 16.0 0.00 0.00 0.00 62 1014.3
20260506023044 56 257 10.0 17.0 0.00 0.00 0.00 61 1014.0
20260506021540 56 236 8.0 17.0 0.00 0.00 0.00 59 1013.9
20260506020041 57 225 10.0 19.0 0.00 0.00 0.00 59 1013.8
20260506014543 57 235 13.0 20.0 0.00 0.00 0.00 58 1013.8
20260506013050 58 227 12.0 21.0 0.00 0.00 0.00 56 1013.7
20260506011544 59 232 11.0 18.0 0.00 0.00 0.00 55 1013.7
20260506010043 59 225 14.0 21.0 0.00 0.00 0.00 53 1013.6
20260506004541 60 233 11.0 20.0 0.00 0.00 0.00 52 1013.3
20260506003040 61 245 14.0 21.0 0.00 0.00 0.00 50 1013.1
20260506001541 61 209 12.0 22.0 0.00 0.00 0.00 49 1013.0
20260506000044 61 200 13.0 22.0 0.00 0.00 0.00 48 1012.8
20260505224541 62 238 15.0 23.0 0.00 0.00 0.00 48 1012.9
20260505223047 63 232 10.0 19.0 0.00 0.00 0.00 46 1012.7
20260505221543 63 229 13.0 20.0 0.00 0.00 0.00 45 1012.9
20260505220043 62 230 12.0 24.0 0.00 0.00 0.00 46 1013.1
20260505214540 62 198 10.0 21.0 0.00 0.00 0.00 47 1013.2
20260505213053 62 240 12.0 25.0 0.00 0.00 0.00 48 1013.4
20260505211545 63 218 10.0 22.0 0.00 0.00 0.00 47 1013.3
20260505210041 62 241 10.0 19.0 0.00 0.00 0.00 46 1013.3
20260505204541 61 221 10.0 20.0 0.00 0.00 0.00 48 1013.2
20260505203040 61 209 10.0 17.0 0.00 0.00 0.00 49 1013.2
20260505201540 60 239 14.0 20.0 0.00 0.00 0.00 51 1013.2
20260505200047 60 199 6.0 17.0 0.00 0.00 0.00 49 1013.4
20260505194540 60 208 9.0 18.0 0.00 0.00 0.00 51 1013.5
20260505193042 59 259 7.0 18.0 0.00 0.00 0.00 47 1013.6
20260505191550 60 232 7.0 15.0 0.00 0.00 0.00 47 1013.6
20260505190040 59 211 6.0 13.0 0.00 0.00 0.00 50 1013.6
20260505184540 59 230 10.0 18.0 0.00 0.00 0.00 52 1013.7
20260505183048 59 242 9.0 16.0 0.00 0.00 0.00 50 1013.6
20260505181543 59 198 8.0 14.0 0.00 0.00 0.00 52 1013.6
20260505180059 58 194 9.0 17.0 0.00 0.00 0.00 53 1013.5